When you browse on this site, cookies collect data to enhance your experience and personalize the content and advertising you see.
Visit our Privacy Policy to learn more. By continuing to use the site, you agree to this use of cookies and data.
  • In United Kingdom
  • List of Countries
  • For 7 days
  • Water Temperature
  • Weather Map
  • Weather Widgets
  • user-avatar
    Login

    Hourly Weather Darmanesti

    Today, 12 November, Tuesday

    Time Temperature Precipitation Wind Pressure Humidity
    00:00 +7°C° 0 mm 0 mps 719 mmHg 74%
    01:00 +7°C° 0 mm 0 mps 719 mmHg 75%
    02:00 +7°C° 0 mm 0 mps 719 mmHg 76%
    03:00 +8°C° 0 mm 1 mps 719 mmHg 76%
    04:00 +8°C° 0 mm 1 mps 719 mmHg 77%
    05:00 +8°C° 0 mm 1 mps 719 mmHg 77%
    06:00 +8°C° 0 mm 1 mps 719 mmHg 77%
    07:00 +8°C° 0 mm 1 mps 719 mmHg 77%
    08:00 +9°C° 0 mm 1 mps 719 mmHg 77%
    09:00 +10°C° 0 mm 2 mps 719 mmHg 71%
    10:00 +14°C° 0 mm 2 mps 719 mmHg 66%
    11:00 +16°C° 0 mm 3 mps 720 mmHg 60%
    12:00 +17°C° 0 mm 4 mps 719 mmHg 58%
    13:00 +18°C° 0 mm 4 mps 719 mmHg 57%
    14:00 +19°C° 0 mm 5 mps 719 mmHg 56%
    15:00 +17°C° 0 mm 4 mps 718 mmHg 63%
    16:00 +14°C° 0 mm 3 mps 718 mmHg 70%
    17:00 +14°C° 0 mm 2 mps 718 mmHg 77%
    18:00 +13°C° 0 mm 2 mps 718 mmHg 80%
    19:00 +12°C° 0 mm 2 mps 718 mmHg 84%
    20:00 +12°C° 0 mm 2 mps 718 mmHg 88%
    21:00 +10°C° 0 mm 2 mps 718 mmHg 89%
    22:00 +11°C° 0 mm 1 mps 718 mmHg 90%
    23:00 +11°C° 0 mm 1 mps 718 mmHg 91%

    Tomorrow, 13 November, Wednesday

    Time Temperature Precipitation Wind Pressure Humidity
    00:00 +11°C° 0 mm 1 mps 718 mmHg 91%
    01:00 +10°C° 0 mm 1 mps 718 mmHg 90%
    02:00 +10°C° 0 mm 1 mps 717 mmHg 90%
    03:00 +10°C° 0 mm 1 mps 717 mmHg 89%
    04:00 +10°C° 0 mm 1 mps 717 mmHg 88%
    05:00 +10°C° 0 mm 1 mps 716 mmHg 87%
    06:00 +10°C° 0 mm 1 mps 716 mmHg 88%
    07:00 +10°C° 0 mm 1 mps 716 mmHg 89%
    08:00 +10°C° 0 mm 1 mps 716 mmHg 90%
    09:00 +12°C° 0 mm 2 mps 716 mmHg 85%
    10:00 +13°C° 0 mm 2 mps 716 mmHg 79%
    11:00 +15°C° 0 mm 2 mps 716 mmHg 74%
    12:00 +14°C° 0 mm 3 mps 715 mmHg 72%
    13:00 +16°C° 0 mm 3 mps 715 mmHg 69%
    14:00 +16°C° 0 mm 3 mps 715 mmHg 66%
    15:00 +15°C° 0 mm 2 mps 715 mmHg 72%
    16:00 +14°C° 0 mm 2 mps 714 mmHg 78%
    17:00 +13°C° 0 mm 2 mps 714 mmHg 84%
    18:00 +13°C° 0 mm 2 mps 714 mmHg 86%
    19:00 +13°C° 0 mm 2 mps 715 mmHg 87%
    20:00 +12°C° 0 mm 1 mps 715 mmHg 89%
    21:00 +12°C° 0 mm 1 mps 715 mmHg 90%
    22:00 +12°C° 0 mm 1 mps 715 mmHg 91%
    23:00 +12°C° 0 mm 1 mps 715 mmHg 93%

    Day after tomorrow, 14 November, Thursday

    Time Temperature Precipitation Wind Pressure Humidity
    00:00 +12°C° 0 mm 1 mps 715 mmHg 93%
    01:00 +12°C° 0 mm 1 mps 715 mmHg 93%
    02:00 +11°C° 0 mm 1 mps 715 mmHg 94%
    03:00 +11°C° 0 mm 1 mps 715 mmHg 94%
    04:00 +11°C° 0 mm 1 mps 715 mmHg 94%
    05:00 +11°C° 0 mm 1 mps 715 mmHg 95%
    06:00 +11°C° 0 mm 1 mps 715 mmHg 94%
    07:00 +11°C° 0 mm 1 mps 715 mmHg 94%
    08:00 +11°C° 0 mm 1 mps 715 mmHg 94%
    09:00 +12°C° 0 mm 1 mps 715 mmHg 88%
    10:00 +13°C° 0 mm 1 mps 715 mmHg 83%
    11:00 +14°C° 0 mm 2 mps 716 mmHg 78%
    12:00 +14°C° 0 mm 2 mps 715 mmHg 76%
    13:00 +14°C° 0 mm 2 mps 715 mmHg 74%
    14:00 +14°C° 0 mm 2 mps 715 mmHg 72%
    15:00 +13°C° 0 mm 2 mps 715 mmHg 76%
    16:00 +12°C° 0 mm 1 mps 715 mmHg 80%
    17:00 +12°C° 0 mm 1 mps 715 mmHg 84%
    18:00 +11°C° 0 mm 1 mps 715 mmHg 85%
    19:00 +11°C° 0 mm 1 mps 715 mmHg 86%
    20:00 +11°C° 0 mm 1 mps 715 mmHg 87%
    21:00 +11°C° 0 mm 1 mps 715 mmHg 88%
    22:00 +10°C° 0 mm 1 mps 715 mmHg 89%
    23:00 +10°C° 0 mm 1 mps 715 mmHg 90%

    15 November, Friday

    Time Temperature Precipitation Wind Pressure Humidity
    00:00 +10°C° 0 mm 1 mps 715 mmHg 91%
    01:00 +10°C° 0 mm 1 mps 715 mmHg 93%
    02:00 +9°C° 0 mm 1 mps 715 mmHg 94%
    03:00 +8°C° 0 mm 0 mps 715 mmHg 94%
    04:00 +8°C° 0 mm 0 mps 715 mmHg 94%
    05:00 +8°C° 0 mm 0 mps 715 mmHg 94%
    06:00 +8°C° 0 mm 0 mps 715 mmHg 94%
    07:00 +8°C° 0 mm 0 mps 716 mmHg 94%
    08:00 +8°C° 0 mm 1 mps 716 mmHg 95%
    09:00 +10°C° 0 mm 1 mps 716 mmHg 88%
    10:00 +12°C° 0 mm 1 mps 717 mmHg 81%
    11:00 +13°C° 0 mm 1 mps 717 mmHg 73%
    12:00 +14°C° 0 mm 2 mps 717 mmHg 72%
    13:00 +15°C° 0 mm 2 mps 717 mmHg 70%
    14:00 +15°C° 0 mm 2 mps 717 mmHg 68%
    15:00 +14°C° 0 mm 2 mps 717 mmHg 75%
    16:00 +13°C° 0 mm 1 mps 717 mmHg 82%
    17:00 +12°C° 0 mm 1 mps 717 mmHg 89%
    18:00 +11°C° 0 mm 1 mps 718 mmHg 90%
    19:00 +11°C° 0 mm 1 mps 718 mmHg 91%
    20:00 +10°C° 0 mm 1 mps 718 mmHg 92%
    21:00 +10°C° 0 mm 1 mps 719 mmHg 91%
    22:00 +10°C° 0 mm 1 mps 719 mmHg 91%
    23:00 +9°C° 0 mm 0 mps 719 mmHg 90%

    16 November, Saturday

    Time Temperature Precipitation Wind Pressure Humidity
    00:00 +9°C° 0 mm 0 mps 719 mmHg 89%
    01:00 +8°C° 0 mm 0 mps 719 mmHg 89%
    02:00 +8°C° 0 mm 0 mps 719 mmHg 88%
    03:00 +8°C° 0 mm 0 mps 719 mmHg 87%
    04:00 +8°C° 0 mm 0 mps 719 mmHg 86%
    05:00 +8°C° 0 mm 0 mps 719 mmHg 85%
    06:00 +8°C° 0 mm 0 mps 720 mmHg 83%
    07:00 +8°C° 0 mm 0 mps 720 mmHg 81%
    08:00 +8°C° 0 mm 0 mps 720 mmHg 79%
    09:00 +11°C° 0 mm 1 mps 720 mmHg 72%
    10:00 +13°C° 0 mm 1 mps 721 mmHg 65%
    11:00 +15°C° 0 mm 1 mps 721 mmHg 58%
    12:00 +16°C° 0 mm 1 mps 721 mmHg 57%
    13:00 +16°C° 0 mm 1 mps 721 mmHg 56%
    14:00 +18°C° 0 mm 1 mps 721 mmHg 54%
    15:00 +15°C° 0 mm 1 mps 720 mmHg 64%
    16:00 +13°C° 0 mm 1 mps 720 mmHg 73%
    17:00 +11°C° 0 mm 1 mps 720 mmHg 82%
    18:00 +11°C° 0 mm 1 mps 720 mmHg 85%
    19:00 +11°C° 0 mm 1 mps 720 mmHg 87%
    20:00 +10°C° 0 mm 1 mps 721 mmHg 89%
    21:00 +10°C° 0 mm 1 mps 721 mmHg 91%
    22:00 +10°C° 0 mm 1 mps 721 mmHg 93%
    23:00 +10°C° 0 mm 1 mps 721 mmHg 94%

    17 November, Sunday

    Time Temperature Precipitation Wind Pressure Humidity
    00:00 +10°C° 0 mm 1 mps 721 mmHg 95%
    01:00 +10°C° 0 mm 1 mps 721 mmHg 95%
    02:00 +10°C° 0 mm 1 mps 721 mmHg 95%
    03:00 +10°C° 0 mm 1 mps 721 mmHg 96%
    04:00 +10°C° 0 mm 1 mps 721 mmHg 96%
    05:00 +10°C° 0 mm 1 mps 720 mmHg 96%
    06:00 +10°C° 0 mm 1 mps 721 mmHg 96%
    07:00 +10°C° 0 mm 1 mps 721 mmHg 96%
    08:00 +11°C° 0 mm 1 mps 721 mmHg 96%
    09:00 +10°C° 0 mm 2 mps 721 mmHg 92%
    10:00 +12°C° 0 mm 2 mps 721 mmHg 87%
    11:00 +12°C° 0 mm 2 mps 721 mmHg 83%
    12:00 +12°C° 0 mm 2 mps 720 mmHg 81%
    13:00 +13°C° 0 mm 2 mps 720 mmHg 79%
    14:00 +13°C° 0 mm 2 mps 720 mmHg 77%
    15:00 +12°C° 0 mm 2 mps 720 mmHg 80%
    16:00 +10°C° 0 mm 2 mps 720 mmHg 83%
    17:00 +10°C° 0 mm 2 mps 719 mmHg 86%
    18:00 +9°C° 0 mm 2 mps 719 mmHg 86%
    19:00 +9°C° 0 mm 2 mps 719 mmHg 87%
    20:00 +8°C° 0 mm 2 mps 719 mmHg 88%
    21:00 +8°C° 0 mm 2 mps 720 mmHg 88%
    22:00 +8°C° 0 mm 2 mps 720 mmHg 89%
    23:00 +7°C° 0 mm 2 mps 720 mmHg 90%
    Show more